[[{"header":{"parameterUnit":"m.s-1","parameterCategory":1,"la1":30.2991,"la2":30.254,"lo1":-89.0895,"lo2":-89.0444,"dy":0.0017,"dx":0.0017,"nx":28,"ny":28,"refTime":"2024-03-23T09:00:00:Z","depth":0,"parameterNumber":2,"parameterNumberName":"U-component_of_WINDS"},"data":[0,0,0,0,0,0,0,0,0,0,0,0,0,0,0,0,0,0,0,0,0,0,0,0,0,0,0,0,0,0,0,0,0,0,0,0,0,0,0,0,0,0,0,0,0,0,0,0,0,0,0,0,0,0,0,0,0,0,-4.5097,-4.5098,0,-4.5185,-4.5186,-4.5187,-4.5167,-4.5166,-4.5164,-4.5162,-4.5254,-4.5258,-4.5262,0,0,0,0,0,0,0,0,0,0,0,0,0,-4.4914,-4.4917,-4.5096,-4.5098,-4.5099,-4.5184,-4.5186,-4.5187,-4.5167,-4.5165,-4.5163,-4.5162,-4.5253,-4.5258,-4.5262,0,0,0,0,0,0,0,0,0,0,0,0,0,-4.4997,-4.4918,-4.5096,-4.5099,-4.5101,-4.5184,-4.5186,-4.5187,-4.5168,-4.5165,-4.5163,-4.5161,-4.5251,-4.5257,-4.5263,-4.535,0,0,-4.5281,-4.5284,0,0,0,0,0,0,0,0,-4.4992,-4.5003,-4.5098,-4.5099,-4.5101,-4.5162,-4.5155,-4.5242,-4.5169,-4.5142,-4.5162,-4.5159,-4.5226,-4.5234,-4.5256,-4.5354,-4.5358,-4.5282,-4.5285,-4.5288,-4.529,0,0,0,0,0,0,0,-4.4986,-4.4999,-4.5131,-4.5099,-4.5101,-4.5097,-4.5106,-4.5171,-4.5197,-4.5144,-4.5143,-4.5154,-4.5226,-4.525,-4.5258,-4.5359,-4.5282,-4.5287,-4.5291,-4.5293,-4.5532,-4.5535,0,0,0,0,0,0,-4.4979,-4.4995,-4.5129,-4.5134,-4.5039,-4.5102,-4.5112,-4.5145,-4.5196,-4.5202,-4.5156,-4.5153,-4.5241,-4.5251,-4.5261,-4.5365,-4.5288,-4.5294,-4.5297,-4.553,-4.5533,-4.5536,0,0,0,0,0,0,-4.4975,-4.4991,-4.5125,-4.5064,-4.5081,-4.5108,-4.5145,-4.5148,-4.5172,-4.5205,-4.5209,-4.5175,-4.5239,-4.5252,-4.5327,-4.5368,-4.5296,-4.5302,-4.5526,-4.5531,-4.5535,-4.5573,0,0,0,0,0,0,-4.497,-4.499,-4.5022,-4.5065,-4.5084,-4.519,-4.5147,-4.5152,-4.5182,-4.5179,-4.5224,-4.5229,-4.5238,-4.5319,-4.5333,-4.5374,-4.5306,-4.5523,-4.5528,-4.5533,-4.5569,-4.5578,-4.5587,0,0,0,0,0,-4.4963,-4.503,-4.5024,-4.504,-4.5125,-4.5192,-4.5203,-4.5211,-4.5185,-4.5219,-4.524,-4.5228,-4.5361,-4.5326,-4.5343,-4.5386,-4.552,-4.5527,-4.5533,-4.5565,-4.5576,-4.5587,0,0,0,0,0,0,-4.4993,-4.5036,-4.503,-4.5112,-4.5148,-4.5188,-4.5231,-4.5224,-4.5269,-4.5264,-4.5273,-4.5283,-4.5359,-4.5381,-4.5341,-4.5473,-4.5437,-4.5447,-4.5456,-4.5467,-4.5476,-4.5469,-4.5311,0,0,0,0,0,-4.5009,-4.5058,-4.5094,-4.5163,-4.5182,-4.5203,-4.5233,-4.5236,-4.5274,-4.5289,-4.5316,-4.5354,-4.5404,-4.5437,-4.5486,-4.5572,-4.5582,-4.5611,-4.562,-4.5627,-4.5635,-4.5682,-4.5694,-4.5557,-4.5556,-4.5556,0,0,-4.5042,-4.5072,-4.5103,-4.517,-4.5198,-4.525,-4.5216,-4.5273,-4.5311,-4.5298,-4.537,-4.5391,-4.5434,-4.5515,-4.5552,-4.5535,-4.5675,-4.5635,-4.564,-4.5644,-4.5689,-4.5702,-4.5714,-4.5561,-4.556,-4.5559,0,0,-4.5129,-4.5157,-4.5217,-4.5247,-4.529,-4.5304,-4.5318,-4.536,-4.5373,-4.5445,-4.5437,-4.5483,-4.557,-4.5601,-4.5628,-4.5727,-4.5718,-4.5743,-4.5789,-4.5835,-4.5846,-4.5855,-4.589,-4.5902,-4.5751,-4.5751,-4.5751,0,-4.5165,-4.5242,-4.525,-4.5306,-4.5336,-4.5327,-4.5388,-4.5416,-4.5474,-4.5495,-4.5475,-4.5583,-4.5612,-4.5699,-4.5723,-4.5746,-4.5763,-4.5737,-4.5844,-4.5853,-4.5862,-4.5895,-4.5908,-4.5754,-4.5753,-4.5753,-4.5753,0,-4.5284,-4.5337,-4.5381,-4.5436,-4.5471,-4.553,-4.5546,-4.5581,-4.5582,-4.5598,-4.5672,-4.5706,-4.576,-4.5782,-4.5783,-4.587,-4.5858,-4.5841,-4.5805,-4.5878,-4.5909,-4.5922,-4.5757,-4.5756,-4.5756,-4.5755,0,0,-4.5391,-4.5449,-4.5464,-4.5489,-4.5536,-4.5578,-4.5637,-4.5689,-4.5718,-4.5759,-4.5808,-4.5882,-4.5866,-4.5897,-4.5902,-4.5943,-4.6018,-4.5921,-4.5922,-4.5936,-4.6114,-4.6125,-4.614,-4.6013,-4.6015,-4.6017,-4.611,0,-4.5481,-4.5583,-4.5592,-4.5684,-4.5733,-4.5726,-4.5777,-4.5812,-4.5829,-4.5874,-4.5893,-4.5944,-4.5921,-4.5939,-4.5979,-4.6,-4.6053,-4.5994,-4.6058,-4.606,-4.6046,-4.6156,-4.6168,-4.6254,-4.6122,-4.6124,-4.6126,0,-4.56,-4.5642,-4.5739,-4.5779,-4.58,-4.5845,-4.5894,-4.5937,-4.5977,-4.5987,-4.6021,-4.6021,-4.6082,-4.6045,-4.6129,-4.6088,-4.6115,-4.613,-4.6134,-4.6139,-4.6096,-4.6163,-4.6282,-4.6294,-4.6145,-4.6144,-4.6142,0,-4.5666,-4.5748,-4.5816,-4.5837,-4.5886,-4.5918,-4.594,-4.5977,-4.6008,-4.6052,-4.6072,-4.6122,-4.6149,-4.6188,-4.6202,-4.6174,-4.6285,-4.625,-4.6294,-4.6294,-4.6317,-4.6315,-4.6441,-4.6337,-4.6337,-4.6337,-4.6336,0,-4.5765,-4.5824,-4.5846,-4.5888,-4.5954,-4.5964,-4.603,-4.605,-4.6084,-4.613,-4.6127,-4.617,-4.6186,-4.6233,-4.6244,-4.6311,-4.6324,-4.6333,-4.6335,-4.6333,-4.6331,-4.6349,-4.6343,-4.634,-4.6339,-4.6339,-4.6338,0,-4.585,-4.5867,-4.594,-4.598,-4.5992,-4.6039,-4.6073,-4.6114,-4.613,-4.6189,-4.6203,-4.6229,-4.6283,-4.6301,-4.6367,-4.6375,-4.6453,-4.6451,-4.6439,-4.6439,-4.6482,-4.6477,-4.6623,-4.6642,-4.6527,-4.6528,-4.6529,0,-4.5911,-4.5956,-4.6001,-4.6031,-4.6053,-4.6102,-4.6134,-4.6146,-4.6179,-4.6227,-4.6262,-4.6316,-4.6359,-4.6446,-4.6472,-4.6522,-4.652,-4.6568,-4.6528,-4.6523,-4.6519,-4.6516,-4.652,-4.6575,-4.6576,-4.6577,-4.6577,0,-4.6017,-4.6024,-4.6068,-4.6116,-4.6154,-4.6192,-4.623,-4.6255,-4.6273,-4.631,-4.6365,-4.6398,-4.6465,-4.6518,-4.657,-4.6593,-4.6588,-4.659,-4.6603,-4.66,-4.6591,-4.6595,-4.6458,-4.6586,-4.6585,-4.6585,-4.6584,-4.6584,-4.6092,-4.6131,-4.6168,-4.6218,-4.6247,-4.6282,-4.6322,-4.6343,-4.6389,-4.6443,-4.6448,-4.6507,-4.6546,-4.6615,-4.6641,-4.6687,-4.6674,-4.6693,-4.6697,-4.6701,-4.6704,-4.6584,-4.6697,-4.6697,-4.6697,-4.6696,-4.6696,0,-4.6197,-4.622,-4.6266,-4.6317,-4.6357,-4.6349,-4.639,-4.6423,-4.6475,-4.6511,-4.6554,-4.6617,-4.6668,-4.6698,-4.6749,-4.6781,-4.678,-4.6794,-4.6791,-4.6796,-4.6714,-4.6697,-4.6794,-4.6794,-4.6794,-4.6794,-4.6794,-4.6794,-4.6256,-4.6322,-4.6332,-4.6413,-4.6436,-4.6493,-4.6517,-4.6549,-4.6578,-4.6648,-4.669,-4.6709,-4.6743,-4.6797,-4.6844,-4.6851,-4.687,-4.6885,-4.6891,-4.6813,-4.6802,-4.6793,-4.6777,-4.6889,-4.6889,-4.6969,-4.697,-4.6971]},{"header":{"parameterUnit":"m.s-1","parameterCategory":1,"la1":30.2991,"la2":30.254,"lo1":-89.0895,"lo2":-89.0444,"dy":0.0017,"dx":0.0017,"nx":28,"ny":28,"refTime":"2024-03-23T09:00:00:Z","depth":0,"parameterNumber":3,"parameterNumberName":"V-component_of_WINDS"},"data":[0,0,0,0,0,0,0,0,0,0,0,0,0,0,0,0,0,0,0,0,0,0,0,0,0,0,0,0,0,0,0,0,0,0,0,0,0,0,0,0,0,0,0,0,0,0,0,0,0,0,0,0,0,0,0,0,0,0,5.0828,5.0826,0,5.0701,5.0699,5.0698,5.0564,5.0563,5.0561,5.0559,5.0425,5.0423,5.0422,0,0,0,0,0,0,0,0,0,0,0,0,0,5.0952,5.0951,5.0828,5.0826,5.0825,5.0701,5.0699,5.0697,5.0565,5.0563,5.056,5.0558,5.0426,5.0424,5.0421,0,0,0,0,0,0,0,0,0,0,0,0,0,5.0869,5.095,5.0828,5.0744,5.0735,5.0701,5.0699,5.0697,5.0565,5.0562,5.056,5.0557,5.0427,5.0424,5.0421,5.0459,0,0,5.0413,5.0411,0,0,0,0,0,0,0,0,5.0874,5.0865,5.0758,5.0749,5.0739,5.0646,5.0694,5.0617,5.0566,5.063,5.0559,5.0556,5.0501,5.0491,5.0474,5.0453,5.0447,5.0412,5.0411,5.0409,5.0409,0,0,0,0,0,0,0,5.088,5.0869,5.0777,5.0756,5.0745,5.0711,5.0696,5.0679,5.0582,5.0624,5.0614,5.0601,5.0495,5.0477,5.0469,5.0445,5.0412,5.041,5.0408,5.0407,5.0449,5.0452,0,0,0,0,0,0,5.0899,5.0875,5.0781,5.0773,5.0801,5.0711,5.0694,5.0678,5.0582,5.0564,5.0603,5.0595,5.0483,5.0473,5.0464,5.0502,5.0409,5.0407,5.0405,5.0446,5.045,5.0453,0,0,0,0,0,0,5.0902,5.0892,5.0786,5.0821,5.0805,5.0712,5.0695,5.0677,5.0659,5.0566,5.0548,5.0603,5.048,5.0468,5.0462,5.0496,5.0406,5.0403,5.0443,5.0447,5.0451,5.0579,0,0,0,0,0,0,5.0906,5.0894,5.0908,5.0823,5.0804,5.0787,5.0697,5.0677,5.0655,5.0643,5.0561,5.0544,5.0477,5.0467,5.0459,5.049,5.0401,5.0439,5.0445,5.045,5.0571,5.0587,5.06,0,0,0,0,0,5.0911,5.0948,5.091,5.0899,5.082,5.079,5.0779,5.0702,5.0658,5.0671,5.0612,5.0547,5.0494,5.0467,5.0457,5.0488,5.0437,5.0443,5.0449,5.0565,5.0584,5.06,0,0,0,0,0,0,5.1039,5.0936,5.0891,5.0902,5.0856,5.0767,5.0781,5.0724,5.0688,5.0678,5.0583,5.0565,5.057,5.0528,5.0501,5.052,5.0456,5.0461,5.0547,5.0564,5.0579,5.0588,5.0399,0,0,0,0,0,5.1068,5.1053,5.0963,5.0982,5.0961,5.0876,5.0859,5.0804,5.0752,5.0731,5.0671,5.0621,5.0593,5.0576,5.0545,5.0565,5.0544,5.0581,5.0596,5.0608,5.0613,5.062,5.0635,5.0473,5.0473,5.0473,0,0,5.1129,5.1071,5.1067,5.1006,5.0963,5.0949,5.086,5.0848,5.0836,5.0728,5.0719,5.0674,5.0612,5.0619,5.0619,5.0584,5.0654,5.0616,5.0627,5.0625,5.0628,5.0643,5.0657,5.0477,5.0477,5.0476,0,0,5.1232,5.1187,5.1197,5.1157,5.1094,5.1037,5.104,5.096,5.0926,5.0915,5.0834,5.0818,5.0772,5.0731,5.0704,5.0793,5.0732,5.0786,5.0861,5.0869,5.0882,5.0893,5.0924,5.0936,5.0791,5.0791,5.0791,0,5.1315,5.1291,5.1209,5.1203,5.1178,5.1082,5.1091,5.1055,5.0985,5.097,5.0933,5.0873,5.0824,5.082,5.0842,5.0824,5.0823,5.0794,5.0887,5.0897,5.0906,5.0934,5.0946,5.0798,5.0797,5.0796,5.0796,0,5.1395,5.138,5.1395,5.1332,5.1309,5.1311,5.1228,5.1215,5.1162,5.1109,5.1099,5.1038,5.0993,5.0988,5.0935,5.0976,5.0957,5.0905,5.0838,5.0929,5.0955,5.0965,5.0808,5.0805,5.0803,5.0802,0,0,5.1574,5.1466,5.1473,5.1443,5.1367,5.1353,5.135,5.1307,5.1297,5.1253,5.1247,5.1211,5.1162,5.1132,5.1074,5.1081,5.1155,5.1028,5.1025,5.1053,5.1195,5.1235,5.1249,5.1114,5.1116,5.1117,5.12,0,5.1663,5.1653,5.158,5.159,5.1574,5.1483,5.148,5.1433,5.1383,5.1362,5.1306,5.1282,5.122,5.1202,5.1204,5.1146,5.1182,5.1138,5.1107,5.1107,5.1125,5.1262,5.1303,5.1385,5.121,5.1211,5.1213,0,5.1766,5.1729,5.1738,5.1663,5.1653,5.1652,5.1607,5.1588,5.1532,5.1496,5.1463,5.1398,5.1389,5.1328,5.1313,5.1285,5.1268,5.1237,5.1238,5.1231,5.1165,5.1259,5.1409,5.1421,5.1227,5.1226,5.1225,0,5.1895,5.1847,5.1846,5.1824,5.1735,5.1737,5.17,5.1642,5.1621,5.1581,5.1566,5.1526,5.1504,5.1473,5.1399,5.1362,5.1392,5.1325,5.1361,5.1363,5.1371,5.1371,5.152,5.1361,5.1361,5.1361,5.1361,0,5.2002,5.2011,5.1903,5.1903,5.191,5.1826,5.1835,5.1789,5.1738,5.1727,5.1645,5.1635,5.1538,5.1517,5.1459,5.1455,5.1446,5.1415,5.14,5.1422,5.1426,5.1409,5.1401,5.1364,5.1363,5.1363,5.1362,0,5.2147,5.2075,5.2068,5.1986,5.1966,5.1975,5.1903,5.1899,5.1845,5.1831,5.1823,5.1738,5.1709,5.1632,5.1583,5.1544,5.1557,5.1528,5.1576,5.1566,5.1606,5.1603,5.1748,5.1763,5.1596,5.1598,5.1599,0,5.2219,5.2225,5.2143,5.213,5.2097,5.2077,5.2056,5.1973,5.1954,5.1891,5.1894,5.1859,5.1827,5.1785,5.1718,5.168,5.1649,5.1703,5.1643,5.1666,5.1649,5.165,5.165,5.1716,5.1718,5.172,5.1721,0,5.2356,5.2321,5.2294,5.2255,5.2232,5.2197,5.2157,5.215,5.2057,5.2039,5.201,5.1985,5.1936,5.1902,5.1854,5.1814,5.1752,5.1741,5.1747,5.177,5.1798,5.1783,5.1611,5.1738,5.1736,5.1735,5.1734,5.1733,5.2466,5.2467,5.241,5.2382,5.2344,5.2309,5.2301,5.2246,5.2221,5.2175,5.2127,5.2103,5.2046,5.1976,5.1941,5.1919,5.1887,5.1896,5.1898,5.1902,5.1912,5.1802,5.191,5.191,5.1909,5.1909,5.1908,0,5.2598,5.2558,5.2533,5.2481,5.2459,5.2404,5.2357,5.2342,5.2323,5.2276,5.2246,5.2212,5.2179,5.211,5.207,5.2067,5.2037,5.2059,5.2058,5.205,5.1943,5.1942,5.2084,5.2083,5.2083,5.2083,5.2083,5.2083,5.2665,5.2662,5.262,5.2598,5.2556,5.2533,5.2511,5.2477,5.2439,5.2406,5.2378,5.2334,5.2278,5.2234,5.2201,5.2181,5.217,5.2201,5.2172,5.2074,5.2057,5.2041,5.2039,5.2199,5.22,5.228,5.2281,5.2282]}]]